CAPE
6 11 17 39 62 149 70 140 233 255 358 411 582 855 981 1000 1071 1031 1162 1721 1849 1938 1963 1902 1788 1737 1670 1716 1841 1854 1893 1751 1624 1450 1372 1434 1008 811 897 902 784 539 483 519 593 564 468 444 509 446 720 848 825 923 726 653 842 508 817 471 708 640 501 497 465 435 373 289 264 199 84 36 11 24 438 252 206 146 120 76 30 10 6 4 5
10 11 11 14 27 82 65 98 91 158 228 264 352 612 729 820 859 854 955 1297 1717 1800 1974 1892 1727 1788 1747 1772 1796 1740 1808 1680 1548 1408 1468 1392 1179 924 904 1008 877 629 447 585 616 524 559 465 368 319 400 654 715 872 977 850 860 736 821 789 808 643 580 566 505 469 414 326 311 220 115 47 14 51 259 342 193 151 102 51 24 4 3 2 3
13 6 12 10 14 10 17 29 54 104 117 175 218 392 596 598 672 754 938 1217 1624 1926 1947 1792 1798 1767 1812 1844 1783 1748 1823 1740 1552 1342 1319 1308 1112 844 1293 1032 1047 942 612 570 758 771 668 599 400 469 422 535 779 700 821 1030 981 893 431 464 639 400 760 619 603 550 480 377 362 251 102 72 40 65 224 234 249 160 84 36 20 13 5 2 1
12 7 7 8 12 10 10 11 28 61 126 174 217 264 380 443 552 796 885 1237 1532 1860 1874 1642 1610 1603 1796 1721 1566 1485 1451 1475 1436 1418 1362 1505 1663 1640 1427 1217 1148 948 830 756 774 616 755 666 613 521 504 508 713 483 559 617 613 482 671 378 494 571 745 650 659 624 574 429 361 279 126 82 44 39 210 229 268 151 109 40 14 29 5 2 1
10 11 5 2 4 7 6 11 11 37 127 198 210 284 343 324 377 382 509 752 1487 1911 1828 1731 1629 1514 1549 1632 1489 1399 1294 1289 1351 1468 1612 1680 1609 1526 1372 1291 744 1019 873 754 667 662 718 630 636 497 465 339 300 322 403 523 540 380 552 588 660 548 848 844 580 669 636 504 446 336 200 139 66 24 86 149 235 194 112 56 60 79 31 1 0
6 6 5 4 6 5 0 0 2 31 39 92 160 198 209 210 309 295 324 470 1085 1670 1892 1862 1632 1534 1557 1570 1480 1520 1298 1207 1232 1294 1400 1420 1414 1372 1369 1326 1209 1267 1018 739 499 634 705 564 521 449 444 380 430 282 369 441 412 492 551 548 676 744 514 693 720 651 508 570 537 501 458 225 113 46 70 200 272 205 137 81 74 107 79 10 0
1 2 0 1 0 0 0 0 0 24 53 164 121 105 129 112 74 169 244 411 851 1393 1934 1856 1712 1550 1559 1574 1520 1374 1337 1342 1264 1230 1334 1459 1352 1411 1304 1324 1297 1311 1208 634 881 621 712 702 631 494 390 462 344 488 554 478 372 383 332 361 319 342 403 517 514 546 444 414 596 553 488 276 150 82 78 181 172 213 141 64 78 108 99 62 7
3 0 2 0 0 0 0 0 0 39 148 147 122 122 167 99 57 87 208 254 702 1138 1755 1740 1730 1695 1662 1624 1581 1468 1483 1504 1444 1304 1361 1242 1365 1498 1457 1445 1524 1462 1416 1150 883 1071 788 805 612 576 517 397 391 344 359 375 370 368 311 248 305 287 418 299 436 424 520 570 434 528 411 319 188 84 86 149 175 186 164 87 70 115 94 46 16
2 0 4 0 0 0 0 0 0 70 136 149 111 97 163 121 75 182 349 306 307 904 1702 1679 1745 1872 1653 1689 1623 1521 1535 1474 1494 1411 1568 1595 1533 1484 1612 1707 1633 1499 1559 1145 1176 1080 934 1009 907 732 604 620 497 431 375 359 414 403 372 285 288 355 473 190 290 559 688 487 318 397 409 361 255 118 113 153 188 199 200 123 63 69 47 36 20
1 0 0 0 0 0 0 0 23 55 100 137 116 102 115 110 251 356 489 531 420 821 1206 1573 1532 1716 1748 1674 1558 1162 1013 943 806 755 879 852 1087 1225 1548 1695 1691 1765 1518 1357 1145 1106 1047 1140 948 878 819 714 601 524 553 446 448 408 335 339 418 396 349 434 372 452 273 380 310 356 312 235 265 171 166 115 125 164 223 148 114 71 60 37 23
9 0 0 0 0 0 0 0 13 72 108 97 49 55 66 44 170 458 541 622 514 876 1521 1626 1610 1595 1631 1713 1546 1104 635 534 316 320 292 295 323 376 694 952 1364 1676 1666 1614 1502 1376 1292 1423 1190 1092 1350 746 782 605 626 494 482 332 396 421 456 324 401 413 389 346 446 375 267 254 498 290 309 238 205 119 116 130 102 194 119 101 60 62 28
30 17 3 0 0 0 0 0 1 15 26 42 42 21 67 97 22 199 362 470 472 569 1038 1585 1717 1790 1604 1596 1627 1473 1266 1121 858 608 365 276 218 217 228 327 851 1008 1372 1593 1647 1767 1595 1541 1268 1309 1322 1135 909 837 706 697 536 544 404 372 350 321 333 349 362 226 381 434 364 310 375 358 170 343 243 126 95 128 120 157 202 114 112 100 87
77 54 2 0 0 0 0 0 0 0 8 10 3 2 12 58 50 23 217 295 436 559 812 1249 1522 1462 1598 1579 1482 1254 874 666 846 1060 892 483 346 337 241 226 274 614 956 970 1570 1852 1784 1620 1565 1446 1328 1644 1308 844 997 929 640 536 497 524 477 370 335 332 345 241 284 467 478 475 320 359 243 220 438 233 126 123 149 114 176 190 158 98 69
67 90 24 0 0 0 0 0 0 0 0 0 0 0 0 0 26 59 26 152 179 312 550 1128 666 697 356 320 584 554 418 290 327 460 417 261 134 139 141 228 179 73 163 398 638 644 1179 1482 1442 1548 1423 1228 1113 1328 1470 693 777 602 721 517 418 366 354 258 306 269 365 508 396 327 409 275 321 284 158 405 158 129 116 152 148 198 186 184 142
79 41 18 16 5 0 0 0 0 0 0 0 0 0 0 0 0 49 19 15 44 72 263 354 346 426 555 390 198 270 269 193 258 415 320 224 119 128 82 82 163 95 26 11 10 282 432 856 1431 1644 1651 1354 1206 1194 981 470 483 415 511 586 538 444 347 349 390 389 353 314 387 347 314 296 286 259 300 354 266 229 152 108 99 147 184 178 200
82 16 42 26 9 2 0 0 0 2 0 0 0 0 0 0 0 0 30 0 1 0 37 137 195 355 118 130 16 338 61 80 197 208 245 218 202 154 130 131 134 114 48 21 9 36 150 323 449 658 1014 1078 576 410 360 555 435 642 224 414 548 540 396 332 392 400 275 183 222 422 467 328 273 273 278 441 445 293 233 152 123 69 117 198 228
230 74 25 62 30 26 11 3 1 2 0 0 0 0 0 0 0 0 5 54 0 0 0 18 44 63 92 203 265 34 49 71 11 200 85 44 72 66 4 21 71 79 23 6 0 1 50 174 309 259 343 500 286 134 155 321 484 490 769 558 462 425 431 480 335 324 328 434 229 234 408 394 314 242 256 360 555 477 289 118 121 155 93 80 254
397 210 76 104 107 33 17 4 6 10 4 0 0 0 0 0 0 0 0 0 0 0 16 0 0 0 1 1 0 0 0 0 10 0 103 0 0 0 0 0 0 16 8 6 0 0 0 16 151 170 151 160 77 30 48 224 470 344 528 810 547 435 526 543 492 584 583 642 501 267 213 430 468 439 183 387 479 500 378 209 147 135 191 157 185
737 488 246 166 198 141 81 33 32 40 1 9 1 0 0 0 0 0 0 0 0 0 0 10 0 0 0 0 0 0 0 0 0 0 0 15 16 0 0 0 0 0 0 0 0 0 0 0 18 71 85 76 41 73 15 29 178 332 214 456 480 500 594 597 466 514 584 342 323 318 314 202 459 409 294 368 181 254 206 286 163 119 140 224 171
851 644 465 314 302 256 148 143 50 4 3 18 2 0 0 20 61 15 0 0 6 8 0 0 0 0 0 0 0 0 0 0 0 0 0 0 0 0 0 0 0 0 0 0 0 0 0 0 10 45 39 46 30 24 10 12 61 234 782 316 575 604 567 652 587 460 475 465 552 502 262 333 402 323 515 706 328 117 112 168 191 221 68 91 162
931 952 828 704 504 504 410 382 322 173 2 91 60 5 3 5 2 16 39 7 16 1 0 0 0 0 0 0 0 0 0 0 0 0 0 0 0 0 0 0 0 0 0 0 0 0 0 0 0 3 34 54 44 46 25 25 55 56 238 390 420 603 576 627 615 571 568 583 542 473 441 377 369 504 183 775 368 163 168 140 155 276 116 100 112
1144 1058 978 810 798 687 586 523 574 310 204 298 356 212 77 24 5 0 30 94 65 5 0 0 0 0 0 0 0 0 0 0 0 0 1 0 2 2 1 0 1 1 0 0 0 0 0 0 0 0 0 38 30 26 40 61 63 34 236 13 392 532 680 644 662 627 560 618 523 377 374 519 350 344 242 370 404 107 560 311 224 184 175 140 82
1245 1297 1176 1064 1087 942 873 701 697 639 648 619 495 338 254 167 81 52 90 14 42 41 9 26 10 10 4 1 5 3 3 0 0 2 4 2 2 3 3 0 0 3 0 0 0 0 0 0 0 0 0 5 13 9 21 34 9 354 0 8 293 691 350 673 683 670 765 561 415 466 461 346 352 272 272 425 373 150 495 721 368 158 143 238 163
1299 1313 1282 1197 1341 1272 1191 1101 962 1031 982 878 820 546 426 396 340 301 277 233 198 186 216 132 80 101 99 28 12 14 16 5 0 13 8 10 12 7 3 4 4 0 1 1 0 0 0 0 0 0 0 0 11 17 16 22 73 3 12 382 298 287 471 280 656 756 656 656 676 591 487 424 362 414 339 277 317 299 261 526 237 247 217 181 235
1228 1110 1222 1290 1282 1426 1366 1451 1500 1533 1324 1092 1062 1044 949 814 745 648 515 447 362 310 268 251 210 128 156 109 70 22 16 2 3 2 16 16 12 12 5 6 11 7 9 5 5 0 0 0 0 0 0 0 0 26 26 8 0 28 0 0 30 420 110 392 345 620 682 680 553 694 751 519 492 481 319 338 294 316 396 344 305 237 315 301 229
1278 1299 1208 1253 1323 1326 1469 1529 1546 1551 1430 1491 1500 1314 1356 1058 850 819 742 627 594 590 234 268 270 235 163 158 87 77 83 24 24 6 14 14 15 18 12 10 9 7 7 7 6 7 4 0 0 2 1 0 0 9 30 0 119 0 0 0 74 52 167 362 314 348 478 688 728 467 548 637 697 544 539 609 619 363 254 251 268 227 277 358 235
1300 1324 1366 1482 1479 1506 1457 1447 1531 1594 1516 1522 1502 1491 1544 1629 1388 1475 1254 1224 1100 977 826 720 479 231 261 206 177 122 112 78 37 31 8 14 3 4 7 11 13 11 14 8 7 8 5 2 2 0 0 0 2 12 0 1 0 0 0 31 0 106 85 105 210 289 590 626 623 712 496 462 488 724 591 605 734 611 336 219 97 264 239 225 217
1478 1468 1574 1569 1627 1666 1727 1739 1714 1658 1585 1513 1614 1463 1507 1483 1398 1291 1254 1001 933 1174 1430 1263 1272 1316 1102 680 300 95 66 98 84 73 66 45 11 9 7 4 7 7 13 18 12 9 4 11 9 5 0 1 1 2 0 0 0 0 0 0 3 59 184 32 5 37 215 499 611 733 720 548 353 402 684 627 557 478 291 192 62 214 230 248 266
1604 1629 1634 1724 1890 2012 1973 2144 2346 2380 2268 2146 2039 1815 1786 1594 1513 1380 1265 1084 1180 902 1043 1326 1289 1301 1302 1222 1252 1075 888 301 364 419 295 192 66 51 12 13 11 10 16 11 5 14 13 2 1 1 2 6 7 7 5 5 8 1 0 0 0 0 9 0 0 0 0 7 168 609 670 596 588 349 340 669 673 557 519 471 412 290 274 279 300
1668 1707 1735 1836 2011 2122 2288 2255 2234 2136 2042 1922 1877 1743 1760 1565 1537 1377 1155 1075 920 855 754 624 563 709 617 870 868 767 808 803 886 828 768 722 479 302 163 55 22 15 27 16 15 6 5 5 8 0 8 10 9 11 11 9 2 12 0 0 0 0 61 0 0 0 0 0 0 0 15 110 229 391 407 436 713 682 716 785 561 414 457 295 270
1773 1999 1987 1611 2096 2267 2244 1984 1808 1706 1629 1543 1396 1298 1512 1339 1265 1155 1112 1084 886 770 636 633 526 424 441 434 409 376 270 403 447 598 742 515 395 105 110 75 147 53 91 30 19 38 29 64 195 35 0 9 4 10 2 6 10 14 0 0 0 9 0 480 0 0 0 0 0 0 0 0 0 0 76 376 295 571 616 575 580 564 357 335 312
1987 2225 2092 2042 2007 1840 1508 1345 1253 1079 945 887 879 867 974 965 917 924 875 779 589 508 418 411 362 328 346 324 235 192 191 113 235 304 424 321 239 77 139 77 129 234 209 29 16 22 52 115 182 253 100 11 3 10 6 0 0 0 0 2 2 0 5 0 0 0 0 0 0 0 0 0 0 0 0 0 26 43 76 147 229 132 345 367 351
2126 2192 2005 1774 1599 1407 1133 726 618 638 545 641 548 555 604 748 743 660 444 359 386 377 251 348 243 346 306 201 79 130 117 142 149 85 56 68 142 252 161 191 134 183 103 75 24 22 54 40 71 52 83 107 115 55 12 11 1 3 0 0 0 3 0 0 3 20 0 0 0 0 0 0 0 0 0 1 1 0 0 0 1 0 12 0 28
2090 1731 1579 1372 1249 838 536 437 418 282 227 261 313 354 269 388 425 331 253 159 242 170 264 204 197 163 187 163 141 120 69 26 35 44 31 405 364 140 208 160 178 158 82 12 19 7 24 30 26 19 26 63 157 280 224 59 20 13 14 7 2 1 2 8 0 70 0 0 0 0 0 0 0 0 0 0 0 0 0 0 0 0 0 0 7
1776 1529 1326 1035 664 421 316 278 115 119 46 56 55 42 43 31 36 69 50 59 44 78 87 79 24 56 85 55 59 46 41 152 120 187 142 195 170 112 94 79 82 103 134 107 47 16 12 8 8 18 28 53 175 184 209 213 77 78 172 55 18 2 8 2 5 44 0 0 0 0 0 0 0 0 0 0 0 0 0 0 0 0 0 0 0
1446 1181 862 536 356 234 80 10 1 0 0 0 0 0 0 0 0 0 0 0 0 0 0 0 0 7 19 26 25 14 16 16 19 18 11 13 27 48 45 52 58 76 112 119 134 115 96 43 32 18 18 36 70 47 146 108 63 59 113 85 29 31 7 8 5 42 5 0 0 0 0 0 0 0 0 0 0 0 0 0 0 0 0 0 0
1072 755 403 240 108 15 0 0 0 0 0 0 0 0 0 0 0 0 0 0 0 0 0 0 0 2 15 19 0 0 0 1 0 0 0 0 0 0 0 0 0 4 9 41 92 109 98 70 58 43 14 6 4 20 66 57 50 67 76 47 34 35 8 64 62 85 5 0 0 0 0 0 0 0 0 0 0 0 0 0 0 0 0 0 0
829 574 291 19 0 0 0 0 0 0 0 0 0 0 0 0 0 0 0 0 0 0 0 0 0 0 4 1 0 0 0 0 0 0 0 0 0 0 0 0 0 0 0 0 0 0 11 20 9 0 0 0 2 2 54 37 40 48 56 83 76 102 68 20 11 3 59 30 51 296 20 0 0 0 0 0 0 0 0 0 0 0 0 0 0
378 192 39 0 0 0 0 0 0 0 0 0 0 0 0 0 0 0 0 0 0 0 0 0 0 0 0 0 0 0 0 0 0 0 0 0 0 0 0 0 0 0 0 0 0 0 0 0 0 0 1 1 0 5 0 2 19 55 120 162 114 129 103 48 12 8 2 21 72 19 53 11 0 0 0 0 0 0 0 0 0 0 0 0 0
154 6 0 0 0 0 0 0 0 0 0 0 0 0 0 0 0 0 0 0 0 0 0 0 0 0 0 0 0 0 0 0 0 0 0 0 0 0 0 0 0 0 0 0 0 0 0 0 0 1 0 0 0 1 0 0 0 0 40 95 137 64 59 80 55 19 8 3 2 25 77 42 32 125 0 0 0 0 0 0 0 0 0 0 0
33 0 0 0 0 0 0 0 0 0 0 0 0 0 0 0 0 0 0 0 0 0 0 0 0 0 0 0 0 0 0 0 0 0 0 0 0 0 0 0 0 3 9 9 20 16 11 4 9 14 15 21 18 13 6 8 3 10 5 3 8 4 4 8 73 144 150 116 44 44 114 129 242 405 208 67 152 0 0 0 0 0 0 0 0
0 0 0 0 0 0 0 0 0 0 0 0 0 0 0 0 0 0 0 0 0 0 0 0 0 0 0 0 0 0 0 0 0 0 0 0 0 0 0 0 0 9 15 38 41 42 31 28 40 27 32 29 24 11 9 19 16 22 24 22 7 2 9 32 12 168 344 234 88 40 27 47 42 44 280 148 104 333 241 46 0 0 0 0 0
0 0 0 0 0 0 0 0 0 0 0 0 0 0 0 0 0 0 0 0 0 0 0 0 0 0 0 0 0 0 0 0 0 0 0 0 0 0 0 0 0 0 4 26 31 41 38 35 32 23 30 29 30 28 34 44 45 29 29 45 38 17 11 7 12 12 536 392 333 92 53 136 145 300 252 65 26 150 12 265 10 0 0 0 0
0 0 0 0 0 0 0 0 0 0 0 0 0 0 0 0 0 3 0 0 0 0 0 0 0 0 0 0 0 0 0 0 0 0 0 0 0 0 0 0 0 0 0 2 17 38 49 58 43 38 51 54 50 62 85 75 77 67 77 53 59 52 26 21 33 30 66 333 551 388 140 118 83 33 28 85 309 329 232 90 54 56 28 0 0
0 0 0 0 0 0 0 0 0 0 0 0 0 0 0 0 0 0 0 0 0 0 0 0 0 0 0 0 0 0 0 0 0 0 0 0 0 0 2 8 6 0 0 0 0 14 62 67 73 86 89 79 81 88 107 64 70 100 107 62 88 93 95 96 73 81 226 388 420 393 179 145 132 79 47 83 106 109 80 39 16 52 110 68 5
0 0 0 0 0 0 0 0 0 0 0 0 0 0 0 0 0 0 0 0 0 0 0 0 0 0 0 0 0 0 0 0 0 0 0 0 0 0 0 0 8 112 0 0 0 0 18 68 95 136 126 101 78 58 39 15 46 94 96 109 143 106 124 233 221 431 552 471 323 320 418 216 300 276 141 134 137 116 116 66 14 34 73 81 72
0 0 0 0 0 0 0 0 0 0 0 0 0 0 0 0 0 0 0 0 0 0 0 0 1 0 2 0 0 0 0 0 0 0 0 0 0 0 0 0 0 0 23 14 12 12 11 20 49 88 104 59 37 26 12 4 24 56 126 260 335 340 244 176 216 262 207 400 487 260 251 378 355 317 354 345 311 301 267 76 13 15 32 52 35
0 0 0 0 0 0 2 2 0 0 0 0 0 0 0 0 0 0 0 0 0 0 0 0 0 0 0 0 0 0 0 0 0 0 0 0 0 0 0 0 0 0 0 48 2 4 28 11 33 41 30 10 1 50 12 1 0 12 59 132 156 205 128 77 70 69 84 104 165 207 15 43 249 106 258 397 265 266 374 286 20 6 22 41 46
1 0 0 6 3 0 0 0 0 0 0 0 0 0 0 0 7 0 0 0 0 0 0 0 0 0 0 0 0 0 0 0 0 0 0 0 0 0 0 0 0 0 0 0 3 0 0 0 0 0 0 0 0 0 12 0 0 1 20 20 73 47 61 66 41 38 60 47 51 360 326 128 81 120 101 143 314 302 278 340 258 17 9 23 36
30 16 53 1 0 0 0 0 0 0 0 0 0 0 0 0 0 10 0 0 0 0 0 1 2 0 0 0 0 0 0 0 0 0 0 1 0 0 0 0 0 0 0 0 0 1 0 0 0 0 0 0 0 0 12 0 0 1 12 12 21 16 16 27 34 16 10 14 220 323 89 66 62 136 121 50 53 236 434 418 357 214 2 16 17
25 43 45 1 0 0 0 0 0 0 0 0 0 0 0 0 0 0 0 0 0 0 0 0 0 2 0 0 0 0 0 0 0 0 0 0 0 0 0 0 0 0 0 0 0 0 0 0 0 1 73 0 0 2 10 0 0 0 1 1 2 3 9 10 12 15 8 11 7 56 33 5 21 44 115 112 57 45 153 469 362 288 236 121 92
Wind_Speed
nan nan nan nan nan 18 nan 16 17 17 18 17 16 15 14 14 13 12 11 10 8 7 7 7 7 6 5 5 4 4 4 5 6 7 7 7 6 6 8 7 6 4 2 4 5 5 6 5 4 6 7 4 5 4 4 5 7 3 6 6 6 6 7 8 7 7 7 7 6 7 nan nan nan nan 6 6 7 8 8 nan nan nan nan nan nan
nan nan nan nan nan nan nan nan nan 18 19 18 18 18 18 17 17 16 16 14 12 11 11 9 8 8 7 7 6 6 6 6 6 7 9 9 6 5 7 10 6 5 2 3 5 4 5 5 3 7 8 6 6 4 3 3 4 2 5 6 5 5 7 9 7 6 7 6 6 7 7 nan nan nan 6 7 7 8 8 nan nan nan nan nan nan
nan nan nan nan nan nan nan nan nan 18 18 18 18 19 18 18 19 20 20 19 18 16 16 14 13 12 11 9 9 9 9 8 9 9 9 10 9 9 9 8 6 5 4 3 4 3 4 5 6 7 7 8 6 5 3 2 2 1 2 4 5 3 7 8 7 6 8 7 6 7 8 nan nan nan 7 7 7 8 nan nan nan nan nan nan nan
nan nan nan nan nan nan nan nan nan nan 17 18 16 17 16 17 18 19 20 20 19 19 19 18 17 16 16 14 14 13 12 10 10 9 9 10 10 10 9 9 7 7 6 6 4 3 4 6 3 3 7 7 5 3 4 3 2 1 2 2 4 5 6 7 7 7 8 8 6 7 8 nan nan nan 8 8 8 8 8 nan nan nan nan nan nan
nan nan nan nan nan nan nan nan nan nan 16 17 15 16 15 16 16 17 17 17 17 17 18 17 17 17 17 17 16 16 15 14 12 11 11 11 11 10 10 10 8 9 6 4 2 3 3 5 5 4 4 1 7 2 5 3 2 2 0 3 3 4 5 7 7 8 9 9 7 7 8 9 nan nan nan 8 9 9 9 nan nan nan nan nan nan
nan nan nan nan nan nan nan nan nan nan nan nan 13 14 13 14 15 15 16 16 15 15 16 15 15 15 15 15 15 15 15 14 14 14 14 13 13 12 12 11 11 9 7 5 2 3 1 5 5 5 6 2 0 3 4 4 1 2 1 2 2 3 5 6 8 8 9 9 9 8 9 11 9 nan nan 7 10 9 9 nan nan 8 nan nan nan
nan nan nan nan nan nan nan nan nan nan nan 13 13 12 11 12 nan 14 14 14 14 14 13 12 12 12 13 13 13 13 14 13 13 13 14 15 15 14 13 12 12 12 10 3 5 5 0 2 3 2 2 3 0 3 1 1 3 2 2 4 2 3 4 6 7 8 9 10 11 10 10 13 11 nan nan 8 9 10 9 nan nan 7 nan nan nan
nan nan nan nan nan nan nan nan nan nan 12 12 12 10 10 nan nan nan 12 12 12 12 12 12 11 12 12 13 13 13 13 13 13 13 13 14 14 14 14 13 13 12 12 9 6 4 3 2 3 2 3 3 2 1 1 1 1 1 0 2 3 2 3 6 8 7 9 10 10 11 11 13 12 nan nan 9 9 10 10 nan nan 8 nan nan nan
nan nan nan nan nan nan nan nan nan nan 12 11 10 nan 9 9 nan 10 11 12 11 11 11 11 12 11 11 11 12 12 12 12 12 12 13 12 12 12 12 12 13 13 12 10 8 6 4 4 5 4 4 3 5 6 4 2 3 5 4 5 3 5 4 7 6 7 9 9 9 10 12 14 13 12 11 10 11 11 11 10 nan nan nan nan nan
nan nan nan nan nan nan nan nan nan nan 12 11 11 10 9 9 8 8 10 11 11 11 11 11 11 11 11 11 11 12 12 12 12 11 11 10 10 9 9 10 10 10 11 11 10 8 10 8 7 6 6 5 5 8 6 6 5 3 4 5 6 4 4 6 7 7 6 6 8 10 13 12 13 13 12 12 11 12 13 11 10 nan nan nan nan
nan nan nan nan nan nan nan nan nan nan 12 nan nan nan nan nan 10 9 11 11 12 12 12 13 13 13 12 11 12 11 13 12 12 12 11 10 9 9 8 9 9 9 9 10 10 9 7 7 8 7 7 6 6 6 8 7 6 7 6 6 4 5 6 5 5 6 7 5 6 8 14 12 13 13 13 13 12 13 13 13 12 11 nan nan nan
nan nan nan nan nan nan nan nan nan nan nan nan nan nan nan nan nan 10 10 10 11 11 12 13 13 13 13 12 12 12 12 13 13 13 12 11 11 10 8 8 8 9 8 8 9 9 9 9 8 6 7 9 5 5 7 6 6 7 7 8 6 5 4 5 4 3 6 6 6 6 9 10 11 13 14 13 nan 13 13 14 13 12 12 10 nan
nan nan nan nan nan nan nan nan nan nan nan nan nan nan nan nan nan nan 8 8 7 9 10 13 13 13 13 13 12 11 10 10 10 11 11 12 12 11 10 9 8 7 7 7 7 8 8 8 8 8 6 7 10 9 6 7 9 7 7 7 8 9 6 5 9 5 5 7 7 7 7 9 9 12 14 14 14 14 14 14 14 13 13 nan nan
nan nan nan nan nan nan nan nan nan nan nan nan nan nan nan nan nan nan nan 5 5 5 7 11 12 12 13 13 13 12 11 9 9 9 10 10 10 10 11 10 10 nan 8 8 6 6 6 7 7 7 8 7 6 7 9 8 9 10 8 6 7 8 8 9 8 8 6 7 8 8 8 9 9 11 12 14 14 15 14 14 14 15 13 13 12
nan nan nan nan nan nan nan nan nan nan nan nan nan nan nan nan nan nan nan nan nan nan 4 6 8 9 10 12 11 13 13 13 11 9 9 9 9 9 nan nan 9 nan nan nan nan 6 5 5 6 6 6 6 7 8 6 7 8 8 9 8 7 7 8 8 8 8 8 8 9 8 7 7 9 11 12 13 14 16 16 15 nan 15 14 14 14
nan nan nan nan nan nan nan nan nan nan nan nan nan nan nan nan nan nan nan nan nan nan nan 2 4 7 9 7 nan 10 nan nan 9 11 10 9 9 9 8 8 8 8 nan nan nan nan 6 5 5 5 6 6 7 8 8 7 11 10 10 11 9 8 7 8 8 9 9 8 9 11 8 7 8 11 13 15 15 16 16 17 17 nan 17 16 16
15 nan nan nan nan nan nan nan nan nan nan nan nan nan nan nan nan nan nan nan nan nan nan nan nan nan nan 9 12 nan nan nan nan 11 nan nan nan nan nan nan nan nan nan nan nan nan nan 7 6 6 6 7 7 7 8 9 10 8 12 13 11 8 8 7 8 10 10 11 12 12 12 11 11 11 13 14 17 17 17 16 18 18 nan nan 18
14 14 nan 13 14 nan nan nan nan nan nan nan nan nan nan nan nan nan nan nan nan nan nan nan nan nan nan nan nan nan nan nan nan nan 14 nan nan nan nan nan nan nan nan nan nan nan nan nan 10 7 6 7 nan nan nan 8 9 9 9 14 9 10 8 8 8 9 10 10 11 13 14 14 15 14 12 13 15 17 18 19 17 19 20 21 22
11 11 12 12 12 12 nan nan nan nan nan nan nan nan nan nan nan nan nan nan nan nan nan nan nan nan nan nan nan nan nan nan nan nan nan nan nan nan nan nan nan nan nan nan nan nan nan nan nan nan nan nan nan nan nan nan 9 10 11 11 10 11 11 10 10 10 10 11 11 13 15 16 15 13 12 12 11 12 18 23 19 15 19 22 23
10 9 9 10 10 10 10 9 nan nan nan nan nan nan nan nan nan nan nan nan nan nan nan nan nan nan nan nan nan nan nan nan nan nan nan nan nan nan nan nan nan nan nan nan nan nan nan nan nan nan nan nan nan nan nan nan nan 11 12 11 8 9 10 11 12 12 12 11 11 12 15 17 17 17 16 16 16 14 13 17 19 16 nan nan 22
11 10 10 9 11 11 11 11 9 8 nan nan nan nan nan nan nan nan nan nan nan nan nan nan nan nan nan nan nan nan nan nan nan nan nan nan nan nan nan nan nan nan nan nan nan nan nan nan nan nan nan nan nan nan nan nan nan nan 15 14 8 8 9 10 10 10 9 9 9 11 11 14 17 17 17 17 17 17 17 14 17 18 20 nan 25
12 12 11 11 11 12 14 13 13 11 10 9 9 10 nan nan nan nan nan nan nan nan nan nan nan nan nan nan nan nan nan nan nan nan nan nan nan nan nan nan nan nan nan nan nan nan nan nan nan nan nan nan nan nan nan nan nan nan 20 nan 13 11 10 11 10 10 11 10 9 8 8 10 12 15 15 17 18 17 18 17 13 15 18 23 nan
12 11 11 10 11 13 14 15 15 15 14 13 11 10 10 10 nan nan nan nan nan nan nan nan nan nan nan nan nan nan nan nan nan nan nan nan nan nan nan nan nan nan nan nan nan nan nan nan nan nan nan nan nan nan nan nan nan 22 nan nan 16 16 15 14 13 13 12 12 12 10 9 8 10 12 15 16 17 18 20 21 16 13 15 21 24
14 13 12 11 11 12 14 15 16 17 16 15 15 13 12 12 12 12 11 11 11 11 9 8 nan 10 nan nan nan nan nan nan nan nan nan nan nan nan nan nan nan nan nan nan nan nan nan nan nan nan nan nan nan nan nan nan nan nan nan 21 19 18 19 17 18 16 17 16 15 15 14 12 10 10 11 13 17 19 19 18 17 16 18 21 25
17 17 16 14 14 14 14 15 17 18 19 19 18 18 17 16 15 14 14 13 12 12 12 12 11 11 10 11 nan nan nan nan nan nan nan nan nan nan nan nan nan nan nan nan nan nan nan nan nan nan nan nan nan nan nan nan nan nan nan nan nan 21 20 20 19 20 20 20 20 19 18 17 15 12 10 10 12 13 14 16 21 21 23 26 25
20 19 19 18 17 15 15 15 16 17 18 18 19 19 20 19 18 17 16 16 16 16 15 15 14 14 14 14 nan nan nan nan nan nan nan nan nan nan nan nan nan nan nan nan nan nan nan nan nan nan nan nan nan nan nan nan 22 nan nan nan nan nan 20 21 20 21 23 22 23 23 23 21 20 18 15 13 12 13 13 15 19 23 25 28 20
19 19 20 19 19 18 16 16 16 17 18 18 18 19 19 20 19 18 18 17 17 18 17 17 16 16 16 15 14 14 14 nan nan nan nan nan nan nan nan nan nan nan nan nan nan nan nan nan nan nan nan nan nan nan nan nan nan nan nan nan nan 23 nan 23 21 22 23 24 24 24 24 24 23 22 21 18 16 16 14 15 nan 14 18 24 20
19 19 19 19 19 20 20 20 20 20 20 20 20 20 20 20 19 18 18 18 18 18 18 18 18 17 16 16 17 nan nan nan nan nan nan nan nan nan nan nan nan nan nan nan nan nan nan nan nan nan nan nan nan nan nan nan nan nan nan nan nan nan 30 nan nan nan 22 23 24 24 24 24 24 24 24 24 23 23 21 17 nan 16 14 14 14
18 18 18 18 18 19 20 20 20 21 21 21 22 22 22 22 21 20 20 18 18 17 18 18 18 18 18 17 17 17 17 17 18 18 17 16 nan nan nan nan nan nan nan nan nan nan nan nan nan nan nan nan nan nan nan nan nan nan nan nan nan nan nan nan nan nan nan nan 24 24 24 25 25 25 26 25 25 24 22 20 16 15 17 15 13
15 15 15 14 14 14 15 15 15 16 17 17 18 19 19 20 20 20 19 19 20 20 20 20 20 21 21 21 20 20 21 20 21 20 20 20 19 18 17 nan nan nan nan nan nan nan nan nan nan nan nan nan nan nan nan nan nan nan nan nan nan nan nan nan nan nan nan nan nan nan nan 25 25 25 25 26 25 25 25 23 21 19 16 14 12
13 12 11 9 7 7 8 8 9 10 11 13 15 16 18 19 19 19 19 19 20 20 21 22 22 22 21 21 23 24 23 24 24 24 24 23 22 21 20 nan 19 nan nan nan nan nan nan nan 23 nan nan nan nan nan nan nan nan nan nan nan nan nan nan 33 nan nan nan nan nan nan nan nan nan nan nan 25 27 26 25 27 29 26 23 23 18
13 13 11 9 8 7 8 9 10 9 10 12 14 16 18 19 20 21 21 21 21 21 22 23 23 23 22 22 23 24 25 25 26 26 26 25 24 nan 23 nan 24 23 22 nan nan nan nan 20 22 24 nan nan nan nan nan nan nan nan nan nan nan nan nan nan nan nan nan nan nan nan nan nan nan nan nan nan nan nan nan 25 24 29 31 29 26
14 15 15 14 14 14 15 14 15 15 15 16 16 17 19 20 22 22 22 23 23 24 24 26 26 25 23 23 nan 25 25 24 25 nan nan nan 26 25 25 26 26 26 25 nan nan nan nan nan nan nan nan 30 29 nan nan nan nan nan nan nan nan nan nan nan nan nan nan nan nan nan nan nan nan nan nan nan nan nan nan nan nan nan nan nan nan
16 16 17 17 17 17 18 20 21 20 21 22 22 22 22 23 24 24 24 25 25 27 28 29 29 28 27 26 26 26 nan nan nan nan nan 28 28 28 29 29 29 30 nan nan nan nan nan nan nan nan nan nan 29 31 33 nan nan nan nan nan nan nan nan nan nan nan nan nan nan nan nan nan nan nan nan nan nan nan nan nan nan nan nan nan nan
16 17 17 17 17 18 20 21 22 23 nan nan nan nan nan nan nan nan nan nan nan nan nan nan nan nan nan nan nan nan nan 29 28 29 28 28 28 28 nan nan nan 30 32 32 nan nan nan nan nan nan nan nan 33 32 33 37 nan nan 34 nan nan nan nan nan nan nan nan nan nan nan nan nan nan nan nan nan nan nan nan nan nan nan nan nan nan
18 18 19 20 20 20 nan nan nan nan nan nan nan nan nan nan nan nan nan nan nan nan nan nan nan nan nan nan nan nan nan nan nan nan nan nan nan nan nan nan nan nan 29 30 31 29 nan nan nan nan nan nan nan nan 38 40 nan nan 40 nan nan nan nan nan nan nan nan nan nan nan nan nan nan nan nan nan nan nan nan nan nan nan nan nan nan
20 21 21 22 23 nan nan nan nan nan nan nan nan nan nan nan nan nan nan nan nan nan nan nan nan nan nan nan nan nan nan nan nan nan nan nan nan nan nan nan nan nan nan nan nan 32 nan nan nan nan nan nan nan nan nan nan nan nan nan nan nan nan nan nan nan nan nan nan nan nan nan nan nan nan nan nan nan nan nan nan nan nan nan nan nan
21 22 24 nan nan nan nan nan nan nan nan nan nan nan nan nan nan nan nan nan nan nan nan nan nan nan nan nan nan nan nan nan nan nan nan nan nan nan nan nan nan nan nan nan nan nan nan nan nan nan nan nan nan nan nan nan nan nan nan nan nan 49 nan nan nan nan nan nan nan 46 nan nan nan nan nan nan nan nan nan nan nan nan nan nan nan
23 25 nan nan nan nan nan nan nan nan nan nan nan nan nan nan nan nan nan nan nan nan nan nan nan nan nan nan nan nan nan nan nan nan nan nan nan nan nan nan nan nan nan nan nan nan nan nan nan nan nan nan nan nan nan nan nan nan 47 47 47 51 52 nan nan nan nan nan nan nan nan nan nan nan nan nan nan nan nan nan nan nan nan nan nan
25 nan nan nan nan nan nan nan nan nan nan nan nan nan nan nan nan nan nan nan nan nan nan nan nan nan nan nan nan nan nan nan nan nan nan nan nan nan nan nan nan nan nan nan nan nan nan nan nan nan nan nan nan nan nan nan nan nan nan nan 48 nan nan nan nan nan nan nan nan nan nan nan nan 42 nan nan nan nan nan nan nan nan nan nan nan
nan nan nan nan nan nan nan nan nan nan nan nan nan nan nan nan nan nan nan nan nan nan nan nan nan nan nan nan nan nan nan nan nan nan nan nan nan nan nan nan nan nan nan nan nan nan nan nan nan nan nan nan nan nan nan nan nan nan nan nan nan nan nan nan nan 53 52 50 nan nan 47 49 48 45 46 nan 42 nan nan nan nan nan nan nan nan
nan nan nan nan nan nan nan nan nan nan nan nan nan nan nan nan nan nan nan nan nan nan nan nan nan nan nan nan nan nan nan nan nan nan nan nan nan nan nan nan nan nan nan nan nan nan nan nan nan nan nan nan nan nan nan nan nan nan nan nan nan nan nan nan nan 53 54 51 nan nan nan nan nan nan 47 45 40 44 45 nan nan nan nan nan nan
nan nan nan nan nan nan nan nan nan nan nan nan nan nan nan nan nan nan nan nan nan nan nan nan nan nan nan nan nan nan nan nan nan nan nan nan nan nan nan nan nan nan nan nan nan nan nan nan nan nan nan nan nan nan nan nan nan nan nan nan nan nan nan nan nan nan 55 53 50 nan nan 53 51 47 46 nan nan 43 nan 42 nan nan nan nan nan
nan nan nan nan nan nan nan nan nan nan nan nan nan nan nan nan nan nan nan nan nan nan nan nan nan nan nan nan nan nan nan nan nan nan nan nan nan nan nan nan nan nan nan nan nan nan nan nan nan nan nan nan nan nan nan nan nan nan nan nan nan nan nan nan nan nan nan 49 48 47 49 55 nan nan nan nan 48 45 42 nan nan nan nan nan nan
nan nan nan nan nan nan nan nan nan nan nan nan nan nan nan nan nan nan nan nan nan nan nan nan nan nan nan nan nan nan nan nan nan nan nan nan nan nan nan nan nan nan nan nan nan nan nan nan nan nan nan nan nan nan 48 nan nan 41 41 nan nan nan nan nan nan nan 42 45 44 44 45 51 56 nan nan nan 51 48 nan nan nan nan 43 nan nan
nan nan nan nan nan nan nan nan nan nan nan nan nan nan nan nan nan nan nan nan nan nan nan nan nan nan nan nan nan nan nan nan nan nan nan nan nan nan nan nan nan 58 nan nan nan nan nan nan nan 49 49 50 nan nan nan nan nan nan nan 37 37 37 37 38 36 35 38 40 41 41 42 45 51 55 56 55 53 51 50 nan nan nan nan nan nan
nan nan nan nan nan nan nan nan nan nan nan nan nan nan nan nan nan nan nan nan nan nan nan nan nan nan nan nan nan nan nan nan nan nan nan nan nan nan nan nan nan nan nan nan nan nan nan nan nan nan 48 nan nan nan nan nan nan nan 35 34 33 34 33 32 33 36 36 40 43 41 37 38 43 46 51 53 52 52 53 nan nan nan nan nan nan
nan nan nan nan nan nan nan nan nan nan nan nan nan nan nan nan nan nan nan nan nan nan nan nan nan nan nan nan nan nan nan nan nan nan nan nan nan nan nan nan nan nan nan nan nan nan nan nan nan nan nan nan nan nan nan nan nan nan nan 34 35 36 34 nan nan nan nan 37 38 39 nan nan 40 40 45 49 50 50 51 53 nan nan nan nan nan
nan nan nan nan nan nan nan nan nan nan nan nan nan nan nan nan nan nan nan nan nan nan nan nan nan nan nan nan nan nan nan nan nan nan nan nan nan nan nan nan nan nan nan nan nan nan nan nan nan nan nan nan nan nan nan nan nan nan nan nan nan nan nan nan nan nan nan nan nan 44 40 38 nan 38 39 43 47 49 48 48 51 nan nan nan nan
nan nan nan nan nan nan nan nan nan nan nan nan nan nan nan nan nan nan nan nan nan nan nan nan nan nan nan nan nan nan nan nan nan nan nan nan nan nan nan nan nan nan nan nan nan nan nan nan nan nan nan nan nan nan nan nan nan nan nan nan nan nan nan nan nan nan nan nan 39 44 nan nan nan 37 38 nan nan 42 44 46 47 49 nan nan nan
nan nan nan nan nan nan nan nan nan nan nan nan nan nan nan nan nan nan nan nan nan nan nan nan nan nan nan nan nan nan nan nan nan nan nan nan nan nan nan nan nan nan nan nan nan nan nan nan nan nan nan nan nan nan nan nan nan nan nan nan nan nan nan nan nan nan nan nan nan nan nan nan nan nan 39 38 nan nan 40 43 45 46 47 50 nan
Wind_Direction
nan nan nan nan nan 89 nan 88 91 93 94 94 92 89 87 88 89 90 88 91 85 80 76 74 67 71 59 42 37 25 21 27 38 36 44 62 42 17 5 18 27 42 70 136 155 164 184 213 248 87 79 84 97 123 144 148 192 235 261 267 273 272 279 272 263 269 273 279 282 282 nan nan nan nan 276 291 290 285 291 nan nan nan nan nan nan
nan nan nan nan nan nan nan nan nan 91 93 93 91 87 87 87 88 86 87 81 79 76 73 69 72 70 67 56 48 43 39 35 44 40 37 45 58 37 8 22 31 37 63 128 121 141 167 230 289 89 104 92 81 67 78 129 185 212 266 262 254 272 268 271 271 271 280 280 285 283 279 nan nan nan 284 285 289 292 296 nan nan nan nan nan nan
nan nan nan nan nan nan nan nan nan 91 92 94 90 87 84 85 86 86 85 83 76 70 70 66 63 61 65 65 59 49 43 41 38 38 37 38 27 35 19 13 22 33 53 97 118 114 164 185 320 54 81 80 69 63 65 101 128 218 257 270 274 270 268 279 284 285 279 279 279 284 284 nan nan nan 294 291 296 302 nan nan nan nan nan nan nan
nan nan nan nan nan nan nan nan nan nan 94 95 92 89 83 81 83 79 77 77 73 69 68 66 65 64 64 61 59 54 48 43 42 44 36 34 36 32 27 30 23 27 37 51 71 72 152 158 152 9 77 83 76 116 80 36 61 161 190 287 305 298 282 289 294 288 280 279 280 280 280 nan nan nan 293 296 303 310 315 nan nan nan nan nan nan
nan nan nan nan nan nan nan nan nan nan 93 95 92 86 81 76 73 75 75 69 68 62 61 61 61 61 62 62 59 59 55 49 45 43 43 39 39 37 44 38 22 33 22 26 104 70 95 137 157 148 92 237 95 10 116 88 22 39 222 239 310 317 303 289 286 283 280 281 280 279 274 279 nan nan nan 297 300 310 318 nan nan nan nan nan nan
nan nan nan nan nan nan nan nan nan nan nan nan 84 81 76 75 74 69 69 65 62 58 56 56 56 54 55 54 54 57 56 53 50 46 46 45 44 41 40 47 43 39 32 343 335 94 125 173 180 185 169 271 27 112 52 82 104 76 249 240 275 314 312 302 278 278 277 280 279 273 263 277 279 nan nan 287 295 304 310 nan nan 295 nan nan nan
nan nan nan nan nan nan nan nan nan nan nan 86 83 78 75 75 nan 69 61 59 54 50 45 42 44 46 49 51 47 42 41 41 40 39 40 42 45 43 45 44 39 43 39 41 11 7 287 199 222 212 168 258 55 81 110 119 43 320 108 200 211 279 282 288 285 269 277 279 276 275 266 275 276 nan nan 283 293 296 298 nan nan 292 nan nan nan
nan nan nan nan nan nan nan nan nan nan 91 85 82 74 71 nan nan nan 63 58 54 45 37 30 32 33 34 36 37 35 33 31 32 29 32 33 36 39 38 38 41 35 50 28 16 5 356 341 281 258 252 274 301 311 262 158 190 228 41 199 219 213 275 244 273 278 263 264 271 274 270 275 276 nan nan 283 286 295 295 nan nan 284 nan nan nan
nan nan nan nan nan nan nan nan nan nan 88 86 80 nan 75 66 nan 66 63 56 46 40 35 31 24 26 28 30 31 33 31 31 30 26 24 26 26 30 30 31 30 34 39 40 37 8 4 357 337 323 307 271 300 318 329 356 353 1 354 337 353 352 320 279 273 272 262 268 268 269 268 273 276 280 283 281 286 289 291 291 nan nan nan nan nan
nan nan nan nan nan nan nan nan nan nan 77 79 85 84 83 82 69 65 63 57 49 51 45 43 38 32 29 33 35 33 30 29 27 28 25 20 20 20 21 27 32 34 33 35 38 30 16 359 349 325 308 315 297 307 315 317 316 327 331 332 354 341 312 264 255 274 280 283 280 271 268 274 275 278 283 283 285 288 287 291 288 nan nan nan nan
nan nan nan nan nan nan nan nan nan nan 84 nan nan nan nan nan 89 74 68 65 60 55 59 53 47 42 42 41 41 39 38 37 36 33 29 25 21 17 24 15 19 25 31 34 33 33 33 28 16 2 323 319 317 312 306 304 301 295 299 328 312 329 319 310 299 298 289 288 282 280 266 269 279 280 281 282 283 284 292 288 291 290 nan nan nan
nan nan nan nan nan nan nan nan nan nan nan nan nan nan nan nan nan 90 78 67 64 61 58 56 46 46 39 40 44 41 41 43 42 41 40 38 35 32 25 27 18 11 13 20 22 24 22 24 22 13 353 330 323 316 314 307 299 287 292 298 307 302 306 335 287 262 301 293 282 281 284 287 288 285 284 282 nan 282 285 287 291 294 291 293 nan
nan nan nan nan nan nan nan nan nan nan nan nan nan nan nan nan nan nan 75 70 64 62 58 57 47 37 37 30 29 33 35 38 42 43 44 45 45 45 42 44 38 30 13 8 3 3 10 7 16 15 13 1 349 340 337 319 303 290 289 285 287 298 322 336 325 352 322 315 308 290 292 296 296 291 292 285 281 281 280 281 288 290 290 nan nan
nan nan nan nan nan nan nan nan nan nan nan nan nan nan nan nan nan nan nan 48 50 73 58 50 37 32 30 20 19 22 17 22 31 29 33 32 37 42 48 47 54 nan 46 23 4 356 350 352 347 353 356 1 359 349 348 323 319 275 268 270 278 292 307 322 331 339 330 311 310 307 302 305 306 303 289 287 284 280 279 278 280 282 285 283 283
nan nan nan nan nan nan nan nan nan nan nan nan nan nan nan nan nan nan nan nan nan nan 52 70 39 42 34 34 15 20 12 7 9 15 17 19 21 25 nan nan 42 nan nan nan nan 21 4 346 333 329 330 333 334 340 333 310 280 298 282 279 279 287 297 296 312 326 326 317 311 316 310 313 315 307 302 291 287 282 284 280 nan 276 278 275 273
nan nan nan nan nan nan nan nan nan nan nan nan nan nan nan nan nan nan nan nan nan nan nan 44 51 61 21 31 nan 40 nan nan 16 1 360 4 360 356 7 14 21 29 nan nan nan nan 34 23 8 347 332 322 321 317 311 302 316 335 324 297 295 285 296 309 314 311 311 309 320 321 314 318 340 321 302 291 287 288 289 284 276 nan 269 269 264
67 nan nan nan nan nan nan nan nan nan nan nan nan nan nan nan nan nan nan nan nan nan nan nan nan nan nan 32 19 nan nan nan nan 356 nan nan nan nan nan nan nan nan nan nan nan nan nan 11 25 15 1 349 330 318 306 302 307 295 314 308 292 296 300 307 315 320 322 328 327 329 322 324 337 344 321 296 285 284 286 286 278 268 nan nan 262
62 64 nan 66 63 nan nan nan nan nan nan nan nan nan nan nan nan nan nan nan nan nan nan nan nan nan nan nan nan nan nan nan nan nan 349 nan nan nan nan nan nan nan nan nan nan nan nan nan 349 355 2 358 nan nan nan 311 303 297 280 279 274 284 295 306 324 335 338 328 328 337 340 331 333 342 344 328 306 290 283 275 265 263 261 257 260
62 56 54 59 61 62 nan nan nan nan nan nan nan nan nan nan nan nan nan nan nan nan nan nan nan nan nan nan nan nan nan nan nan nan nan nan nan nan nan nan nan nan nan nan nan nan nan nan nan nan nan nan nan nan nan nan 311 304 285 278 278 273 274 285 295 307 322 334 341 341 344 342 342 341 339 333 339 312 286 276 274 264 259 258 256
64 63 56 49 54 52 49 45 nan nan nan nan nan nan nan nan nan nan nan nan nan nan nan nan nan nan nan nan nan nan nan nan nan nan nan nan nan nan nan nan nan nan nan nan nan nan nan nan nan nan nan nan nan nan nan nan nan 314 310 297 290 279 275 274 282 292 301 314 325 330 335 341 347 348 347 338 333 323 307 286 274 262 nan nan 250
67 62 62 57 54 51 50 42 35 32 nan nan nan nan nan nan nan nan nan nan nan nan nan nan nan nan nan nan nan nan nan nan nan nan nan nan nan nan nan nan nan nan nan nan nan nan nan nan nan nan nan nan nan nan nan nan nan nan 294 297 288 285 281 280 281 288 289 304 312 319 330 342 352 355 351 344 338 337 330 309 277 262 259 nan 244
51 53 55 53 55 49 41 33 31 29 36 33 33 29 nan nan nan nan nan nan nan nan nan nan nan nan nan nan nan nan nan nan nan nan nan nan nan nan nan nan nan nan nan nan nan nan nan nan nan nan nan nan nan nan nan nan nan nan 282 nan 287 279 277 277 279 279 288 298 310 315 326 343 352 352 351 353 344 341 339 341 309 273 266 265 nan
46 42 42 46 42 36 34 32 33 37 37 36 31 26 26 25 nan nan nan nan nan nan nan nan nan nan nan nan nan nan nan nan nan nan nan nan nan nan nan nan nan nan nan nan nan nan nan nan nan nan nan nan nan nan nan nan nan 280 nan nan 286 283 278 279 275 276 273 280 286 295 302 309 323 340 351 355 355 351 346 344 346 315 288 276 267
42 36 31 32 31 31 38 44 45 46 44 42 39 36 30 26 24 23 21 20 18 19 10 6 nan 355 nan nan nan nan nan nan nan nan nan nan nan nan nan nan nan nan nan nan nan nan nan nan nan nan nan nan nan nan nan nan nan nan nan 295 290 286 284 280 278 275 275 273 273 277 282 289 300 314 326 336 351 357 355 339 341 338 326 299 276
43 39 36 40 44 50 54 53 51 49 50 49 46 43 42 35 31 27 23 22 18 16 17 16 12 8 356 348 nan nan nan nan nan nan nan nan nan nan nan nan nan nan nan nan nan nan nan nan nan nan nan nan nan nan nan nan nan nan nan nan nan 289 288 284 282 279 274 270 269 270 269 273 281 287 295 310 325 343 350 346 339 340 338 325 290
45 43 45 48 52 56 58 54 50 50 49 51 52 50 46 45 40 36 31 25 21 20 18 16 13 11 6 2 nan nan nan nan nan nan nan nan nan nan nan nan nan nan nan nan nan nan nan nan nan nan nan nan nan nan nan nan 287 nan nan nan nan nan 290 286 283 281 278 273 270 267 266 266 269 273 275 277 290 314 325 331 339 342 342 346 340
48 46 48 51 54 56 57 54 51 52 54 54 53 52 49 46 45 41 36 29 26 22 20 18 13 9 7 5 358 350 342 nan nan nan nan nan nan nan nan nan nan nan nan nan nan nan nan nan nan nan nan nan nan nan nan nan nan nan nan nan nan 296 nan 293 284 282 279 278 274 270 267 265 264 264 266 268 267 272 287 317 nan 322 342 354 357
50 51 49 52 55 58 57 55 55 56 56 57 56 54 53 49 45 41 38 27 24 20 14 8 2 1 357 353 352 nan nan nan nan nan nan nan nan nan nan nan nan nan nan nan nan nan nan nan nan nan nan nan nan nan nan nan nan nan nan nan nan nan 300 nan nan nan 281 278 275 272 269 267 265 264 262 263 265 267 277 292 nan 313 323 338 353
50 48 51 54 58 62 63 61 58 56 55 53 51 50 48 46 42 39 34 27 21 16 5 1 353 348 342 339 335 329 324 325 327 328 323 320 nan nan nan nan nan nan nan nan nan nan nan nan nan nan nan nan nan nan nan nan nan nan nan nan nan nan nan nan nan nan nan nan 271 271 269 267 265 265 265 263 268 271 271 274 285 299 310 326 329
40 40 45 53 60 63 67 64 58 53 48 42 39 37 35 32 30 28 23 21 16 9 5 359 352 347 341 336 330 325 317 314 314 316 318 316 312 312 314 nan nan nan nan nan nan nan nan nan nan nan nan nan nan nan nan nan nan nan nan nan nan nan nan nan nan nan nan nan nan nan nan 266 266 265 263 265 267 268 266 266 267 270 283 296 296
16 18 26 35 41 46 44 41 34 32 28 23 21 14 11 7 5 3 358 360 358 357 352 350 348 345 340 336 329 322 318 315 312 312 312 311 311 313 314 nan 311 nan nan nan nan nan nan nan 300 nan nan nan nan nan nan nan nan nan nan nan nan nan nan 283 nan nan nan nan nan nan nan nan nan nan nan 263 263 264 266 260 254 260 260 254 260
345 344 344 341 334 331 325 329 330 339 346 354 356 354 351 347 344 342 339 337 337 336 336 336 337 335 333 330 324 318 314 313 310 310 310 309 309 nan 307 nan 308 308 308 nan nan nan nan 293 293 292 nan nan nan nan nan nan nan nan nan nan nan nan nan nan nan nan nan nan nan nan nan nan nan nan nan nan nan nan nan 261 260 256 254 253 251
332 332 326 316 310 308 302 299 301 308 313 319 326 329 330 329 329 329 326 323 321 322 324 322 323 324 323 322 nan 312 311 308 308 nan nan nan 301 302 299 302 301 302 300 nan nan nan nan nan nan nan nan 292 297 nan nan nan nan nan nan nan nan nan nan nan nan nan nan nan nan nan nan nan nan nan nan nan nan nan nan nan nan nan nan nan nan
334 332 327 322 313 305 298 295 295 295 298 300 305 310 314 318 319 323 321 318 317 316 318 317 316 318 316 313 310 307 nan nan nan nan nan 298 299 299 299 301 300 300 nan nan nan nan nan nan nan nan nan nan 290 290 289 nan nan nan nan nan nan nan nan nan nan nan nan nan nan nan nan nan nan nan nan nan nan nan nan nan nan nan nan nan nan
334 333 331 328 321 311 302 297 296 296 nan nan nan nan nan nan nan nan nan nan nan nan nan nan nan nan nan nan nan nan nan 298 297 297 296 297 299 298 nan nan nan 302 302 304 nan nan nan nan nan nan nan nan 293 289 286 285 nan nan 282 nan nan nan nan nan nan nan nan nan nan nan nan nan nan nan nan nan nan nan nan nan nan nan nan nan nan
328 329 330 329 324 317 nan nan nan nan nan nan nan nan nan nan nan nan nan nan nan nan nan nan nan nan nan nan nan nan nan nan nan nan nan nan nan nan nan nan nan nan 301 303 306 304 nan nan nan nan nan nan nan nan 290 287 nan nan 281 nan nan nan nan nan nan nan nan nan nan nan nan nan nan nan nan nan nan nan nan nan nan nan nan nan nan
323 325 324 323 322 nan nan nan nan nan nan nan nan nan nan nan nan nan nan nan nan nan nan nan nan nan nan nan nan nan nan nan nan nan nan nan nan nan nan nan nan nan nan nan nan 307 nan nan nan nan nan nan nan nan nan nan nan nan nan nan nan nan nan nan nan nan nan nan nan nan nan nan nan nan nan nan nan nan nan nan nan nan nan nan nan
321 321 321 nan nan nan nan nan nan nan nan nan nan nan nan nan nan nan nan nan nan nan nan nan nan nan nan nan nan nan nan nan nan nan nan nan nan nan nan nan nan nan nan nan nan nan nan nan nan nan nan nan nan nan nan nan nan nan nan nan nan 276 nan nan nan nan nan nan nan 264 nan nan nan nan nan nan nan nan nan nan nan nan nan nan nan
319 320 nan nan nan nan nan nan nan nan nan nan nan nan nan nan nan nan nan nan nan nan nan nan nan nan nan nan nan nan nan nan nan nan nan nan nan nan nan nan nan nan nan nan nan nan nan nan nan nan nan nan nan nan nan nan nan nan 281 277 274 274 273 nan nan nan nan nan nan nan nan nan nan nan nan nan nan nan nan nan nan nan nan nan nan
318 nan nan nan nan nan nan nan nan nan nan nan nan nan nan nan nan nan nan nan nan nan nan nan nan nan nan nan nan nan nan nan nan nan nan nan nan nan nan nan nan nan nan nan nan nan nan nan nan nan nan nan nan nan nan nan nan nan nan nan 271 nan nan nan nan nan nan nan nan nan nan nan nan 260 nan nan nan nan nan nan nan nan nan nan nan
nan nan nan nan nan nan nan nan nan nan nan nan nan nan nan nan nan nan nan nan nan nan nan nan nan nan nan nan nan nan nan nan nan nan nan nan nan nan nan nan nan nan nan nan nan nan nan nan nan nan nan nan nan nan nan nan nan nan nan nan nan nan nan nan nan 269 268 264 nan nan 256 257 256 253 253 nan 260 nan nan nan nan nan nan nan nan
nan nan nan nan nan nan nan nan nan nan nan nan nan nan nan nan nan nan nan nan nan nan nan nan nan nan nan nan nan nan nan nan nan nan nan nan nan nan nan nan nan nan nan nan nan nan nan nan nan nan nan nan nan nan nan nan nan nan nan nan nan nan nan nan nan 268 269 266 nan nan nan nan nan nan 254 254 247 258 255 nan nan nan nan nan nan
nan nan nan nan nan nan nan nan nan nan nan nan nan nan nan nan nan nan nan nan nan nan nan nan nan nan nan nan nan nan nan nan nan nan nan nan nan nan nan nan nan nan nan nan nan nan nan nan nan nan nan nan nan nan nan nan nan nan nan nan nan nan nan nan nan nan 270 267 260 nan nan 250 248 244 243 nan nan 245 nan 253 nan nan nan nan nan
nan nan nan nan nan nan nan nan nan nan nan nan nan nan nan nan nan nan nan nan nan nan nan nan nan nan nan nan nan nan nan nan nan nan nan nan nan nan nan nan nan nan nan nan nan nan nan nan nan nan nan nan nan nan nan nan nan nan nan nan nan nan nan nan nan nan nan 262 259 254 249 251 nan nan nan nan 242 240 243 nan nan nan nan nan nan
nan nan nan nan nan nan nan nan nan nan nan nan nan nan nan nan nan nan nan nan nan nan nan nan nan nan nan nan nan nan nan nan nan nan nan nan nan nan nan nan nan nan nan nan nan nan nan nan nan nan nan nan nan nan 281 nan nan 278 275 nan nan nan nan nan nan nan 263 262 261 258 252 251 253 nan nan nan 245 239 nan nan nan nan 250 nan nan
nan nan nan nan nan nan nan nan nan nan nan nan nan nan nan nan nan nan nan nan nan nan nan nan nan nan nan nan nan nan nan nan nan nan nan nan nan nan nan nan nan 311 nan nan nan nan nan nan nan 297 293 290 nan nan nan nan nan nan nan 275 271 269 268 267 266 267 267 266 264 260 258 254 253 252 253 254 253 248 242 nan nan nan nan nan nan
nan nan nan nan nan nan nan nan nan nan nan nan nan nan nan nan nan nan nan nan nan nan nan nan nan nan nan nan nan nan nan nan nan nan nan nan nan nan nan nan nan nan nan nan nan nan nan nan nan nan 295 nan nan nan nan nan nan nan 280 278 277 276 271 269 270 269 266 266 265 266 264 259 253 251 252 253 254 253 250 nan nan nan nan nan nan
nan nan nan nan nan nan nan nan nan nan nan nan nan nan nan nan nan nan nan nan nan nan nan nan nan nan nan nan nan nan nan nan nan nan nan nan nan nan nan nan nan nan nan nan nan nan nan nan nan nan nan nan nan nan nan nan nan nan nan 281 280 275 271 nan nan nan nan 262 257 256 nan nan 255 250 248 250 251 252 252 251 nan nan nan nan nan
nan nan nan nan nan nan nan nan nan nan nan nan nan nan nan nan nan nan nan nan nan nan nan nan nan nan nan nan nan nan nan nan nan nan nan nan nan nan nan nan nan nan nan nan nan nan nan nan nan nan nan nan nan nan nan nan nan nan nan nan nan nan nan nan nan nan nan nan nan 259 256 253 nan 252 251 248 247 248 250 251 251 nan nan nan nan
nan nan nan nan nan nan nan nan nan nan nan nan nan nan nan nan nan nan nan nan nan nan nan nan nan nan nan nan nan nan nan nan nan nan nan nan nan nan nan nan nan nan nan nan nan nan nan nan nan nan nan nan nan nan nan nan nan nan nan nan nan nan nan nan nan nan nan nan 262 258 nan nan nan 250 250 nan nan 250 252 252 252 251 nan nan nan
nan nan nan nan nan nan nan nan nan nan nan nan nan nan nan nan nan nan nan nan nan nan nan nan nan nan nan nan nan nan nan nan nan nan nan nan nan nan nan nan nan nan nan nan nan nan nan nan nan nan nan nan nan nan nan nan nan nan nan nan nan nan nan nan nan nan nan nan nan nan nan nan nan nan 248 246 nan nan 250 251 250 248 247 244 nan